Date String (YYYY-MM-DD hh:mm:ss) UTC,Instrument flags,Ambient pressure (hPa),Sample flow (lpm),Bypass flow (lpm),Sample temperature (°C),Ambient temperature (°C),ASC tube jacket temperature (°C),LED temperature (°C),Box temperature (°C),Sample RH (%),Span deviation,Mass concentration (μg/m³),Mass concentration (μg/m³),Mass concentration (μg/m³)
DateTimeUTC,F1_M11,P_M11,Q1_M11,Q2_M11,T1_M11,T2_M11,T3_M11,T4_M11,T5_M11,U1_M11,ZSPAN_M11,X0_M11,X2_M11,X1_M11
2022-03-03 18:00:00,,0827.6,5.00,0.00,28.0,27.3,00.0,36.8,29.9,09.6,0000.0,0005.42,0001.77,0001.08
2022-03-03 18:01:00,,0827.2,5.00,0.00,28.0,27.3,00.0,36.8,29.9,10.2,0000.0,0004.07,0001.80,0001.09
2022-03-03 18:02:00,,0827.2,4.98,0.00,28.0,27.3,00.0,36.9,29.9,10.7,0000.0,0004.55,0001.89,0001.10
2022-03-03 18:03:00,,0827.1,5.00,0.00,28.1,27.3,00.0,36.9,29.9,10.9,0000.0,0005.19,0001.98,0001.12
2022-03-03 18:04:00,,0827.2,5.00,0.00,28.1,27.4,00.0,36.9,29.9,10.9,0000.0,0005.63,0002.07,0001.15
2022-03-03 18:05:00,,0827.1,5.00,0.00,28.1,27.4,00.0,36.9,29.9,10.6,0000.0,0005.91,0002.14,0001.17
2022-03-03 18:06:00,,0827.1,5.00,0.00,28.1,27.4,00.0,36.9,30.0,10.7,0000.0,0006.42,0002.18,0001.18
2022-03-03 18:07:00,,0827.2,5.00,0.00,28.1,27.4,00.0,36.9,30.0,10.8,0000.0,0006.63,0002.22,0001.19
2022-03-03 18:08:00,,0827.1,5.00,0.00,28.1,27.4,00.0,37.0,30.0,10.7,0000.0,0006.68,0002.22,0001.19
2022-03-03 18:09:00,,0827.1,5.00,0.00,28.1,27.4,00.0,37.0,30.0,10.3,0000.0,0006.87,0002.22,0001.19
2022-03-03 18:10:00,,0827.0,5.00,0.00,28.2,27.4,00.0,37.0,30.0,10.3,0000.0,0007.20,0002.23,0001.20
2022-03-03 18:11:00,,0827.0,5.00,0.00,28.2,27.4,00.0,37.0,30.0,10.0,0000.0,0007.37,0002.26,0001.20
2022-03-03 18:12:00,,0827.0,5.00,0.00,28.2,27.5,00.0,37.0,30.0,09.8,0000.0,0007.42,0002.25,0001.21
2022-03-03 18:13:00,,0827.0,5.00,0.00,28.2,27.5,00.0,37.0,30.0,09.8,0000.0,0006.89,0002.16,0001.22
2022-03-03 18:14:00,,0827.0,5.00,0.00,28.2,27.5,00.0,37.0,30.0,09.9,0000.0,0006.26,0002.09,0001.24
2022-03-03 18:15:00,,0827.0,4.99,0.00,28.2,27.5,00.0,37.1,30.0,10.5,0000.0,0006.19,0002.07,0001.25
2022-03-03 18:16:00,,0826.9,5.00,0.00,28.2,27.5,00.0,37.1,30.1,10.2,0000.0,0006.36,0002.10,0001.27
2022-03-03 18:17:00,,0827.0,4.99,0.00,28.2,27.5,00.0,37.1,30.1,09.7,0000.0,0006.23,0002.23,0001.31
2022-03-03 18:18:00,,0827.0,5.00,0.00,28.2,27.5,00.0,37.1,30.1,09.0,0000.0,0007.17,0002.30,0001.34
2022-03-03 18:19:00,,0826.9,5.00,0.00,28.2,27.5,00.0,37.1,30.1,08.6,0000.0,0007.31,0002.38,0001.40
2022-03-03 18:20:00,,0826.9,5.01,0.00,28.3,27.6,00.0,37.1,30.1,08.9,0000.0,0007.04,0002.40,0001.45
2022-03-03 18:21:00,,0826.9,5.00,0.00,28.3,27.6,00.0,37.1,30.1,08.8,0000.0,0006.67,0002.42,0001.50
2022-03-03 18:22:00,,0827.0,5.00,0.00,28.3,27.6,00.0,37.2,30.1,09.2,0000.0,0007.13,0002.47,0001.52
2022-03-03 18:23:00,,0827.0,4.99,0.00,28.3,27.5,00.0,37.2,30.1,09.5,0000.0,0008.31,0002.51,0001.53
2022-03-03 18:24:00,,0827.0,5.01,0.00,28.3,27.6,00.0,37.2,30.1,09.4,0000.0,0008.44,0002.56,0001.52
2022-03-03 18:25:00,,0827.0,4.99,0.00,28.3,27.6,00.0,37.2,30.1,09.1,0000.0,0008.54,0002.55,0001.51
2022-03-03 18:26:00,,0827.0,5.00,0.00,28.3,27.6,00.0,37.2,30.1,09.1,0000.0,0008.29,0002.48,0001.52
2022-03-03 18:27:00,,0826.9,5.00,0.00,28.3,27.6,00.0,37.2,30.1,10.0,0000.0,0008.46,0002.40,0001.53
2022-03-03 18:28:00,,0826.9,5.00,0.00,28.3,27.6,00.0,37.2,30.1,10.1,0000.0,0009.42,0002.30,0001.53
2022-03-03 18:29:00,,0826.9,5.01,0.00,28.3,27.6,00.0,37.2,30.2,09.8,0000.0,0009.33,0002.23,0001.51
2022-03-03 18:30:00,,0826.9,5.00,0.00,28.3,27.6,00.0,37.2,30.2,10.2,0000.0,0010.04,0002.28,0001.50
2022-03-03 18:31:00,,0826.8,5.00,0.00,28.3,27.6,00.0,37.2,30.2,10.8,0000.0,0010.74,0002.41,0001.49
2022-03-03 18:32:00,,0826.8,5.00,0.00,28.4,27.7,00.0,37.2,30.2,11.0,0000.0,0011.12,0002.59,0001.51
2022-03-03 18:33:00,,0826.8,5.00,0.00,28.4,27.7,00.0,37.3,30.2,10.6,0000.0,0011.20,0002.86,0001.62
2022-03-03 18:34:00,,0826.8,5.00,0.00,28.4,27.7,00.0,37.3,30.2,10.7,0000.0,0010.82,0003.05,0001.77
2022-03-03 18:35:00,,0826.7,5.00,0.00,28.4,27.7,00.0,37.3,30.2,10.7,0000.0,0012.03,0003.19,0001.92
2022-03-03 18:36:00,,0826.8,5.00,0.00,28.4,27.7,00.0,37.3,30.2,10.7,0000.0,0012.76,0003.40,0002.07
2022-03-03 18:37:00,,0826.8,5.01,0.00,28.4,27.7,00.0,37.3,30.2,11.0,0000.0,0014.26,0003.65,0002.33
2022-03-03 18:38:00,,0826.8,5.01,0.00,28.4,27.7,00.0,37.3,30.2,11.0,0000.0,0014.39,0003.87,0002.63
2022-03-03 18:39:00,,0826.8,5.00,0.00,28.4,27.7,00.0,37.3,30.2,10.9,0000.0,0013.79,0004.07,0002.89
2022-03-03 18:40:00,,0826.7,4.99,0.00,28.4,27.7,00.0,37.3,30.2,11.4,0000.0,0014.37,0004.33,0003.17
2022-03-03 18:41:00,,0826.8,5.00,0.00,28.4,27.7,00.0,37.3,30.3,11.3,0000.0,0014.29,0004.53,0003.34
2022-03-03 18:42:00,,0826.7,5.00,0.00,28.4,27.7,00.0,37.3,30.3,11.1,0000.0,0014.05,0004.72,0003.54
2022-03-03 18:43:00,,0826.7,5.00,0.00,28.4,27.7,00.0,37.3,30.3,11.1,0000.0,0014.53,0004.88,0003.73
2022-03-03 18:44:00,,0826.7,5.00,0.00,28.4,27.7,00.0,37.4,30.2,11.0,0000.0,0015.05,0004.98,0003.89
2022-03-03 18:45:00,,0826.7,5.00,0.00,28.4,27.8,00.0,37.4,30.2,10.9,0000.0,0014.95,0005.10,0004.04
2022-03-03 18:46:00,,0826.7,5.00,0.00,28.5,27.8,00.0,37.4,30.3,10.8,0000.0,0014.25,0005.29,0004.18
2022-03-03 18:47:00,,0826.6,5.00,0.00,28.5,27.8,00.0,37.4,30.3,10.8,0000.0,0013.85,0005.38,0004.33
2022-03-03 18:48:00,,0826.6,5.00,0.00,28.5,27.8,00.0,37.4,30.3,10.8,0000.0,0012.70,0005.41,0004.40
2022-03-03 18:49:00,,0826.6,5.00,0.00,28.5,27.8,00.0,37.4,30.3,10.8,0000.0,0013.18,0005.53,0004.46
2022-03-03 18:50:00,,0826.5,5.00,0.00,28.5,27.9,00.0,37.4,30.3,11.0,0000.0,0013.64,0005.63,0004.54
2022-03-03 18:51:00,,0826.5,5.00,0.00,28.5,27.9,00.0,37.4,30.4,11.0,0000.0,0014.03,0005.67,0004.58
2022-03-03 18:52:00,,0826.5,4.99,0.00,28.6,27.9,00.0,37.4,30.4,10.8,0000.0,0013.93,0005.68,0004.61
2022-03-03 18:53:00,,0826.5,5.00,0.00,28.6,27.9,00.0,37.5,30.4,10.9,0000.0,0014.07,0005.70,0004.61
2022-03-03 18:54:00,,0826.5,5.00,0.00,28.6,27.9,00.0,37.5,30.4,10.8,0000.0,0014.10,0005.73,0004.62
2022-03-03 18:55:00,,0826.5,4.99,0.00,28.6,27.9,00.0,37.5,30.4,10.6,0000.0,0014.66,0005.82,0004.64
2022-03-03 18:56:00,,0826.5,5.00,0.00,28.6,27.9,00.0,37.5,30.4,10.7,0000.0,0014.88,0005.88,0004.68
2022-03-03 18:57:00,,0826.5,4.99,0.00,28.6,27.9,00.0,37.5,30.4,10.7,0000.0,0015.03,0005.88,0004.72
2022-03-03 18:58:00,,0826.5,5.00,0.00,28.6,28.0,00.0,37.5,30.4,10.6,0000.0,0015.48,0005.91,0004.74
2022-03-03 18:59:00,,0826.5,5.01,0.00,28.6,28.0,00.0,37.5,30.4,10.4,0000.0,0015.95,0005.97,0004.76
